Location: Stony Creek
(40.9500°S, 175.8500°E)
Time: 10:06:59
(UTC+00:00)

Cosmos 1900 - Pass Details

Date: 15 May 2026
Orbit: 689 x 726 km, 66.1° (Epoch: 10 June)

Event Time Altitude Azimuth Distance (km) Brightness Sun altitude
Rises 17:48:46 0° 334° (NNW) 3,085 7.5 -16.8°
Reaches altitude 10° 17:51:05 10° 334° (NNW) 2,180 6.7 -16.4°
Maximum altitude 17:56:04 82° 61° (ENE) 732 4.4 -15.4°
Drops below altitude 10° 18:01:10 10° 148° (SSE) 2,232 7.2 -14.5°
Sets 18:03:34 0° 148° (SSE) 3,164 7.9 -14.0°
